Вернуться в каталог

STARLINK-34767

АктивенСвязьVLEO
NORAD 66507·PAYLOAD·🇺🇸 United States

Запущен Nov 15, 2025 с Cape Canaveral Space Force Station

Loading…

Ближайшие Пролёты (ближайшие 24 часа)

TLE

СвежийSource: CelesTrak SupGP

Эпоха: Sep 14, 2026, 22:37 UTC

1 66507C 25263Y   26257.94284722 -.00012771  00000+0 -46253-3 0  2571
2 66507  43.0024   2.1415 0001557 268.5001 316.6279 15.27587523    12

Отслеживайте STARLINK-34767 в реальном времени с AllMySat

Download on the App Store